Regional Weather Roundup
Issued by NWS

Home | Current Version | Previous Version | Graphics & Text | Print | Product List | Glossary On
Versions: 1 2 3 4 5 6 7 8 9 10 11 12 13 14 15 16 17 18 19 20 21 22 23 24 25 26 27 28 29 30 31 32 33 34 35 36 37 38 39 40 41 42 43 44 45 46 47 48 49 50
000
ASUS45 KABQ 040510
RWRNM
WEATHER ROUNDUP FOR NEW MEXICO
NATIONAL WEATHER SERVICE ALBUQUERQUE NM
1100 PM MDT SUN MAY 03 2015

NOTE: "FAIR" MEANS FEW OR NO CLOUDS BELOW 12,000 FEET AGL WITH NO
       SIGNIFICANT WEATHER OR OBSTRUCTIONS TO VISION.

      THIS PRODUCT IS RELEASED AS TWO VERSIONS.  ONE VERSION NEAR
      THE TOP OF THE HOUR CONTAINING PRELIMINARY DATA FROM ALBUQUERQUE
      AND OTHER STATIONS.  A FINAL VERSION WITH ADDITIONAL DATA IS
      ISSUED ABOUT 10 MINUTES AFTER THE HOUR.

NMZ501-503-504-510>518-040600-
NORTHWEST PLATEAU/NORTHCENTRAL MOUNTAINS

CITY           SKY/WX    TMP DP  RH WIND       PRES   REMARKS
FARMINGTON     CLEAR     57  37  47 SE6       30.02R
LOS ALAMOS     PTCLDY    53  37  54 N10G18    30.11F
SANTA FE       PTCLDY    52  37  56 N13       30.05R
TAOS           MOCLDY    45  32  61 N7        30.12F
ANGEL FIRE     FAIR      37  36  94 NE7       30.20R WCI  32

$$
NMZ402-403-502-505>509-040600-
WESTCENTRAL MOUNTAINS/SOUTHWEST MOUNTAINS

CITY           SKY/WX    TMP DP  RH WIND       PRES   REMARKS
GALLUP         CLOUDY    53  40  61 NW3       30.08R
GRANTS         MOCLDY    52  38  58 CALM      30.10S
SILVER CITY      N/A     55  34  44 NW7       30.00S

$$
NMZ407-409-411-412-040600-
SOUTHERN DESERTS

CITY           SKY/WX    TMP DP  RH WIND       PRES   REMARKS
LORDSBURG      FAIR      68  30  24 NE3       29.92R
DEMING         CLOUDY    73  36  25 SW7       29.93R
LAS CRUCES     PTCLDY    68  37  31 NW6       29.92S
HOLLOMAN AFB   PTCLDY    69  31  24 E5        29.89S
ALAMOGORDO     MOCLDY    68  32  26 E5        29.91S
T OR C         CLEAR     67  32  27 NW8       29.94S

$$
NMZ519>523-040600-
CENTRAL VALLEYS/CENTRAL HIGHLANDS

CITY           SKY/WX    TMP DP  RH WIND       PRES   REMARKS
ALBUQUERQUE    PTCLDY    63  36  36 NW7       30.00S
DOUBLE EAGLE   MOCLDY    57  37  46 N8        30.03F
MORIARTY ARPT  FAIR      51  35  54 NE6       30.05S
CLINES CORNERS MOCLDY    53  34  48 NE8       30.07S
BELEN          MOCLDY    59  37  42 NW5       30.01R
SOCORRO        FAIR      66  32  28 N6        29.97R

$$
NMZ524>526-539-540-040600-
SOUTHCENTRAL MOUNTAINS

CITY           SKY/WX    TMP DP  RH WIND       PRES   REMARKS
RUIDOSO        PTCLDY    57  27  30 SE3       30.09S

$$
NMZ527>531-040600-
NORTHEAST HIGHLANDS/NORTHEAST PLAINS

CITY           SKY/WX    TMP DP  RH WIND       PRES   REMARKS
LAS VEGAS      MOCLDY    47  39  74 N9        30.08R
RATON          LGT RAIN  50  36  58 CALM      30.09R
CLAYTON        CLOUDY    60  48  64 MISG      30.00R

$$
NMZ532>537-040600-
EASTCENTRAL PLAINS

CITY           SKY/WX    TMP DP  RH WIND       PRES   REMARKS
TUCUMCARI        N/A     69  45  41 SE3       29.97R
CANNON AFB     MOCLDY    64  48  57 S15       29.99R
CLOVIS AIRPORT PTCLDY    61  48  63 S12       29.99R

$$
NMZ028-029-538-040600-
SOUTHEAST PLAINS

CITY           SKY/WX    TMP DP  RH WIND       PRES   REMARKS
ROSWELL        PTCLDY    67  45  45 S17       29.92R
ARTESIA        PTCLDY    70  46  43 S31G37    29.90F
CARLSBAD       CLEAR     68  47  46 S13       29.92R
HOBBS          PTCLDY    63  50  63 SE7       29.95R


$$



USA.gov is the U.S. government's official web portal to all federal, state and local government web resources and services.